Regional Weather Roundup
Issued by NWS

Home | Current Version | Previous Version | Graphics & Text | Print | Product List | Glossary On
Versions: 1 2 3 4 5 6 7 8 9 10 11 12 13 14 15 16 17 18 19 20 21 22 23 24 25 26 27 28 29 30 31 32 33 34 35 36 37 38 39 40 41 42 43 44 45 46 47 48 49 50
614
ASUS44 KJAN 241103
RWRMS

MISSISSIPPI HOURLY WEATHER ROUNDUP
NATIONAL WEATHER SERVICE JACKSON MS
600 AM CDT THU APR 24 2014

NOTE: "FAIR: INDICATES FEW OR NO CLOUDS BELOW 12,000 FEET WITH NO
SIGNIFICANT WEATHER AND/OR OBSTRUCTIONS TO VISIBILITY.

MSZ001>002-007>008-010>013-018>021-025>028-034>036-241200-
NORTHWEST MISSISSIPPI

CITY           SKY/WX    TMP DP  RH WIND       PRES   REMARKS
CLARKSDALE       N/A     54  45  71 CALM      29.91S
CLEVELAND      FAIR      58  48  69 SE5       29.89S
GREENWOOD      CLEAR     59  43  55 SE10      29.91R
GREENVILLE     PTCLDY    57  49  74 SE6       29.89R
GRENADA        FAIR      46  46 100 CALM      29.93R
OLIVE BRANCH   CLEAR     48  43  81 CALM      29.92S
OXFORD         FAIR      54  39  58 SE3       29.94R
TUNICA         SUNNY     50  45  81 SE3       29.92R
$$

MSZ003>006-009-014>017-022>024-029>033-037>039-241200-
NORTHEAST MISSISSIPPI

CITY           SKY/WX    TMP DP  RH WIND       PRES   REMARKS
BELMONT        FAIR      42  41  97 CALM      29.95S
COLUMBUS AFB   CLEAR     46  46  98 SE2       29.94R
CORINTH        FAIR      43  41  93 CALM      29.94R
GOLDN TRIANGLE CLEAR     54  43  66 SE6       29.95S
STARKVILLE     FAIR      45  45 100 CALM      29.94R
TUPELO         CLEAR     47  43  86 CALM      29.94R
$$

MSZ040-058-241200-
CENTRAL MISSISSIPPI

CITY           SKY/WX    TMP DP  RH WIND       PRES   REMARKS
JACKSON INTL   PTCLDY    58  52  80 CALM      29.92R
JACKSON HAWKNS MOCLDY    59  51  75 CALM      29.92R
MERIDIAN KEY   CLEAR     52  50  93 CALM      29.93S
MERIDIAN NAS   PTCLDY    51  49  92 CALM      29.94R
RAYMOND        FAIR      54  48  82 CALM      29.92R
VICKSBURG      MOCLDY    56  53  90 CALM      29.92R
$$

MSZ059>079-241200-
SOUTH MISSISSIPPI

CITY           SKY/WX    TMP DP  RH WIND       PRES   REMARKS
BROOKHAVEN     FAIR      55  55 100 CALM      29.92R FOG
HATTIESBURG    PTCLDY    58  56  93 CALM      29.93R
MCCOMB         CLEAR     55  54  96 CALM      29.91R FOG
NATCHEZ        PTCLDY    55  52  88 CALM      29.91R
PINE BELT      PTCLDY    55  54  94 CALM      29.94R
$$

MSZ080>082-241200-
COASTAL MISSISSIPPI

CITY           SKY/WX    TMP DP  RH WIND       PRES   REMARKS
BILOXI         FOG       64  64 100 CALM      29.93R VSB 3/4
PASCAGOULA     FOG       59  59 100 CALM      29.94R VSB 1/4
GULFPORT         N/A     63  59  87 CALM      29.92R
$$



USA.gov is the U.S. government's official web portal to all federal, state and local government web resources and services.